This demonstration page uses our WeatherBlox Daily Observations layout. Learn more.

Left ArrowRight Arrow

41.86663, -103.66717

Hourly Observations for August 3, 2021

Temp ( °F °C ) Dew Point ( °F °C ) Humidity (%) Winds ( mph kmh ) Pressure ( in mb ) Visibility ( mi km ) Precip ( " mm )
12:53 am 00:53 Clear 67 19.4 50 10 55 55 E 9 15 29.96 1014 9 14 N/A
1:53 am 01:53 Clear 66 18.9 49 9.4 54 54 E 10 17 29.95 1014 9 14 N/A
2:53 am 02:53 Clear 63 17.2 49 9.4 60 60 E 8 13 29.95 1014 9 14 N/A
3:53 am 03:53 Clear 64 17.8 48 8.9 56 56 ENE 5 7 29.95 1014 9 14 N/A
4:53 am 04:53 Clear 60 15.6 50 10 70 70 N N/A 29.95 1014 9 14 N/A
5:53 am 05:53 Sunny 59 15 50 10 72 72 ESE 5 7 29.96 1014 8 13 N/A
6:53 am 06:53 Sunny 62 16.7 50 10 65 65 N N/A 29.97 1015 7 11 N/A
7:53 am 07:53 Sunny 66 18.9 52 11.1 61 61 E 6 9 29.98 1015 7 11 N/A
8:53 am 08:53 Mostly Cloudy 71 21.7 53 11.7 53 53 E 3 6 29.98 1015 7 11 N/A
9:53 am 09:53 Sunny 79 26.1 54 12.2 42 42 VRB 5 7 29.97 1015 8 13 N/A
10:53 am 10:53 Sunny 82 27.8 57 13.9 42 42 VRB 5 7 29.96 1015 10 16 N/A
11:53 am 11:53 Sunny 88 31.1 57 13.9 35 35 W 5 7 29.94 1014 9 14 N/A
12:53 pm 12:53 Sunny 91 32.8 54 12.2 28 28 E 8 13 29.91 1013 10 16 N/A
1:53 pm 13:53 Sunny 93 33.9 53 11.7 26 26 E 10 17 29.88 1012 10 16 N/A
2:53 pm 14:53 Sunny 95 35 47 8.3 19 19 S 10 17 29.88 1012 9 14 N/A
3:53 pm 15:53 Mostly Sunny 94 34.4 45 7.2 18 18 S 9 15 29.87 1012 9 14 N/A
4:53 pm 16:53 Mostly Sunny 87 30.6 50 10 28 28 WSW 9 15 29.89 1012 10 16 N/A
5:53 pm 17:53 Sunny 80 26.7 55 12.8 42 42 W 16 26 29.93 1013 10 16 N/A
6:53 pm 18:53 Sunny 79 26.1 56 13.3 45 45 W 8 13 29.92 1013 10 16 N/A
7:53 pm 19:53 Sunny 78 25.6 55 12.8 45 45 WNW 8 13 29.92 1013 10 16 N/A
8:53 pm 20:53 Mostly Cloudy 76 24.4 55 12.8 48 48 WNW 6 9 29.93 1014 10 16 N/A
9:53 pm 21:53 Mostly Clear 77 25 54 12.2 45 45 WNW 13 20 29.93 1014 10 16 N/A
10:53 pm 22:53 Clear 74 23.3 57 13.9 56 56 WNW 18 30 29.94 1014 9 14 N/A
11:53 pm 23:53 Clear 72 22.2 56 13.3 57 57 WNW 12 19 29.95 1014 9 14 N/A

Powered by AerisWeather